Simultaneous Nadir Overpasses (SNOs) Predictions

Prediction of SNOs between METOP-C and LANDSAT-8 Satellite Orbit:

Table of predicted SNOs for the next 14.0 days since TLE Epoch: 2/11/2023
Index Date (METOP-C) Time (METOP-C) Lat,Lon (METOP-C) SZA (METOP-C ) Date (LANDSAT-8) Time (LANDSAT-8) Lat,Lon (LANDSAT-8) SZA (LANDSAT-8 ) Distance(km) Time Diff (sec)
1 02/13/2023 15:27:18 -81.10, 167.26 84.03 02/13/2023 15:27:36 -81.10, 167.42 84.01 2.84 18
2 02/13/2023 16:17:56 81.13, -24.64 96.05 02/13/2023 16:17:01 81.13, -24.51 96.04 2.15 55
3 02/16/2023 11:01:39 -81.11,-125.97 84.95 02/16/2023 11:01:46 -81.11,-126.07 84.96 1.92 7
4 02/16/2023 11:52:17 81.14, 42.07 95.13 02/16/2023 11:51:11 81.13, 41.97 95.09 1.72 66
5 02/19/2023 05:45:21 81.09, 132.62 94.03 02/19/2023 05:46:30 81.09, 132.46 94.04 2.90 69
6 02/19/2023 06:36:02 -81.11, -59.71 85.94 02/19/2023 06:35:56 -81.11, -59.57 85.93 2.37 6
7 02/22/2023 01:19:43 81.10,-160.94 93.04 02/22/2023 01:20:39 81.09,-161.05 93.04 2.15 56
8 02/22/2023 02:10:24 -81.11, 6.79 86.93 02/22/2023 02:10:05 -81.11, 6.92 86.93 2.37 19
9 02/24/2023 20:54:04 81.09, -94.63 92.00 02/24/2023 20:54:46 81.09, -94.58 92.02 1.03 42



Historial Predications of SNOs between METOP-C and LANDSAT-8
